Tracking 18784 objects as of 17-August-2017
HD Live streaming from Space Station
objects crossing your sky now

FLOCK 2K 20

Track FLOCK 2K 20 now!
10-day predictions
FLOCK 2K 20 is classified as:


NORAD ID: 42885
Int'l Code: 2017-042BN
Perigee: 462.8 km
Apogee: 484.0 km
Inclination: 97.0 °
Period: 93.9 minutes
Semi major axis: 6844 km
RCS: Unknown
Launch date: July 14, 2017
Source: United States (US)
Launch site: TYURATAM MISSILE AND SPACE COMPLEX (TTMTR)
Your satellite tracking list
Your tracking list is empty





NASA's NSSDC Master Catalog

Two Line Element Set (TLE):
1 42885U 17042BN  17228.82088441 +.00004302 +00000-0 +13588-3 0  9993
2 42885 096.9994 136.0526 0015453 116.3685 243.9147 15.33211812004940
Source of the keplerian elements: AFSPC